Weather History for Shreveport, LA

Change the Weather History Date:

Sunday, March 10, 2013

  Actual Average Record
Temperature  
Mean Temperature 55 °F 56 °F  
Max Temperature 65 °F 68 °F 87 °F (1911)
Min Temperature 44 °F 45 °F 23 °F (1996)
Degree Days  
Heating Degree Days 10 9  
Month to date heating degree days 126 103  
Since 1 July heating degree days 1740 1985  
Cooling Degree Days 0 1  
Month to date cooling degree days 0 8  
Year to date cooling degree days 8 18  
Growing Degree Days 4 (Base 50)    
Moisture  
Dew Point 51 °F    
Average Humidity 70    
Maximum Humidity 93    
Minimum Humidity 46    
Precipitation  
Precipitation 0.78 in 0.13 in 2.03 in (1952)
Month to date precipitation 0.80 1.40  
Year to date precipitation 8.24 10.35  
Snow  
Snow 0.00 in - - ()
Month to date snowfall 0.0  
Since 1 July snowfall 0.1  
Snow Depth 0.00 in    
Sea Level Pressure  
Sea Level Pressure 29.85 in    
Wind  
Wind Speed 12 mph (WSW)    
Max Wind Speed 30 mph    
Max Gust Speed 37 mph    
Visibility 8 miles    
Events Fog , Rain , Thunderstorm    
T = Trace of Precipitation, MM = Missing Value Source: NWS Daily Summary

Daily Weather History Graph

Daily Weather History Graph

Search for Another Location

Airport:

Trip Planner

Search our weather history database for the weather conditions in past years. The results will help you decide how hot, cold, wet, or windy it might be!

Date:

Astronomy

Mar. 10, 2013 Rise Set
Actual Time 7:31 AM CDT 7:19 PM CDT
Civil Twilight 7:07 AM CDT 7:44 PM CDT
Nautical Twilight 6:38 AM CDT 8:12 PM CDT
Astronomical Twilight 6:10 AM CDT 8:41 PM CDT
Moon 6:29 AM CDT (3/10) 6:28 PM CDT (3/10)
Length of Visible Light 12h 37m
Length of Day
11h 48m
Waning Crescent, 2% of the Moon is Illuminated
Mar 10
Waning Crescent
Mar 11
New
Mar 19
First Quarter
Mar 27
Full
Apr 2
Last Quarter

Hourly Weather History & Observations

Time (CDT) Temp. Windchill Dew Point Humidity Pressure Visibility Wind Dir Wind Speed Gust Speed Precip Events Conditions
12:36 AM 62.6 °F - 60.8 °F 94% 29.84 in 10.0 mi South 9.2 mph - N/A   Overcast
12:56 AM 62.1 °F - 60.1 °F 93% 29.83 in 10.0 mi SSE 9.2 mph - 0.00 in   Overcast
1:56 AM 63.0 °F - 60.1 °F 90% 29.80 in 10.0 mi SSE 10.4 mph - N/A   Overcast
3:56 AM 63.0 °F - 60.1 °F 90% 29.79 in 10.0 mi SSE 9.2 mph - N/A   Overcast
4:56 AM 64.0 °F - 60.1 °F 87% 29.73 in 10.0 mi SSE 15.0 mph - N/A   Overcast
5:56 AM 64.0 °F - 60.1 °F 87% 29.71 in 10.0 mi South 15.0 mph - N/A   Overcast
6:56 AM 64.4 °F - 60.8 °F 88% 29.73 in 7.0 mi South 15.0 mph 21.9 mph N/A Rain Light Rain
7:05 AM 64.4 °F - 60.8 °F 88% 29.73 in 7.0 mi South 13.8 mph - 0.01 in Rain , Thunderstorm Light Thunderstorms and Rain
7:45 AM 64.4 °F - 62.6 °F 94% 29.79 in 7.0 mi NW 19.6 mph 35.7 mph 0.04 in Rain Light Rain
7:49 AM 59.0 °F - 55.4 °F 88% 29.79 in 0.2 mi NW 26.5 mph 35.7 mph 0.06 in Fog , Rain Heavy Rain
7:54 AM 55.4 °F - 51.8 °F 88% 29.77 in 1.5 mi NW 24.2 mph 36.8 mph 0.25 in Rain Heavy Rain
7:56 AM 54.0 °F - 52.0 °F 93% 29.78 in 1.5 mi NW 24.2 mph 36.8 mph 0.26 in Rain Rain
8:00 AM 53.6 °F - 51.8 °F 94% 29.78 in 2.0 mi NNW 20.7 mph 31.1 mph 0.01 in Rain Rain
8:07 AM 53.6 °F - 51.8 °F 94% 29.79 in 2.0 mi NNW 18.4 mph 27.6 mph 0.02 in Rain Rain
8:23 AM 53.6 °F - 51.8 °F 94% 29.79 in 4.0 mi NNW 13.8 mph 25.3 mph 0.06 in Rain Light Rain
8:53 AM 53.6 °F - 51.8 °F 94% 29.82 in 2.5 mi NW 17.3 mph 21.9 mph 0.11 in Rain Heavy Rain
8:56 AM 54.0 °F - 51.1 °F 90% 29.82 in 2.5 mi NW 13.8 mph 21.9 mph 0.13 in Rain Rain
9:44 AM 53.6 °F - 51.8 °F 94% 29.87 in 2.0 mi NW 11.5 mph - 0.22 in Rain Rain
9:47 AM 53.6 °F - 51.8 °F 94% 29.86 in 4.0 mi NW 9.2 mph - 0.22 in Rain Light Rain
9:51 AM 53.6 °F - 51.8 °F 94% 29.85 in 6.0 mi NNW 8.1 mph - 0.22 in Rain Light Rain
9:56 AM 54.0 °F - 52.0 °F 93% 29.83 in 5.0 mi North 8.1 mph - 0.23 in Rain Rain
10:56 AM 53.1 °F - 51.1 °F 93% 29.85 in 3.0 mi East 3.5 mph - 0.05 in Rain Heavy Rain
10:58 AM 53.6 °F - 51.8 °F 94% 29.85 in 2.0 mi East 3.5 mph - 0.02 in Rain Heavy Rain
11:04 AM 53.6 °F - 51.8 °F 94% 29.85 in 5.0 mi Calm Calm - 0.03 in Rain Light Rain
11:56 AM 54.0 °F - 52.0 °F 93% 29.84 in 10.0 mi SE 4.6 mph - 0.07 in Rain Light Rain
11:59 AM 53.6 °F - 51.8 °F 94% 29.85 in 10.0 mi SE 5.8 mph - 0.00 in Rain Light Rain
12:12 PM 53.6 °F - 53.6 °F 100% 29.87 in 10.0 mi South 5.8 mph - 0.00 in Rain Light Rain
12:18 PM 53.6 °F - 51.8 °F 94% 29.88 in 10.0 mi South 9.2 mph - 0.00 in   Overcast
12:31 PM 55.4 °F - 53.6 °F 94% 29.88 in 7.0 mi SSE 8.1 mph - 0.01 in Rain Light Rain
12:41 PM 53.6 °F - 53.6 °F 100% 29.87 in 7.0 mi Variable 3.5 mph - 0.01 in Rain Light Rain
12:56 PM 55.0 °F - 53.1 °F 93% 29.87 in 10.0 mi South 4.6 mph - 0.01 in Rain Light Rain
1:24 PM 55.4 °F - 53.6 °F 94% 29.87 in 10.0 mi South 6.9 mph - 0.00 in   Overcast
1:50 PM 55.4 °F - 53.6 °F 94% 29.88 in 10.0 mi South 4.6 mph - 0.00 in   Overcast
1:56 PM 55.9 °F - 53.1 °F 90% 29.87 in 9.0 mi South 5.8 mph - 0.00 in Rain Light Rain
1:59 PM 55.4 °F - 53.6 °F 94% 29.87 in 10.0 mi South 6.9 mph - 0.01 in Rain Light Rain
2:19 PM 57.2 °F - 53.6 °F 88% 29.87 in 10.0 mi South 6.9 mph - 0.01 in   Mostly Cloudy
2:27 PM 57.2 °F - 53.6 °F 88% 29.86 in 10.0 mi South 6.9 mph - 0.01 in   Overcast
2:56 PM 60.1 °F - 55.0 °F 83% 29.85 in 10.0 mi South 6.9 mph - 0.01 in   Overcast
3:24 PM 59.0 °F - 53.6 °F 82% 29.86 in 10.0 mi South 8.1 mph - N/A   Overcast
3:33 PM 57.2 °F - 53.6 °F 88% 29.86 in 10.0 mi WNW 9.2 mph - N/A   Overcast
3:46 PM 59.0 °F - 51.8 °F 77% 29.86 in 10.0 mi West 9.2 mph - N/A   Overcast
3:56 PM 61.0 °F - 52.0 °F 72% 29.86 in 10.0 mi West 10.4 mph - N/A   Mostly Cloudy
4:56 PM 63.0 °F - 44.1 °F 50% 29.84 in 10.0 mi WNW 15.0 mph - N/A   Scattered Clouds
5:56 PM 61.0 °F - 39.9 °F 46% 29.85 in 10.0 mi West 16.1 mph - N/A   Scattered Clouds
6:56 PM 57.0 °F - 39.9 °F 53% 29.87 in 10.0 mi NW 20.7 mph 24.2 mph N/A   Partly Cloudy
7:56 PM 51.1 °F - 37.9 °F 61% 29.92 in 10.0 mi NW 20.7 mph 26.5 mph N/A   Partly Cloudy
8:56 PM 48.0 °F - 37.0 °F 66% 29.96 in 10.0 mi WNW 16.1 mph 24.2 mph N/A   Partly Cloudy
9:56 PM 46.9 °F - 35.1 °F 63% 30.00 in 10.0 mi NW 8.1 mph - N/A   Partly Cloudy
10:56 PM 46.9 °F - 35.1 °F 63% 30.02 in 10.0 mi WNW 5.8 mph - N/A   Overcast
11:56 PM 46.9 °F - 35.1 °F 63% 30.01 in 10.0 mi NW 17.3 mph - N/A   Overcast
12:56 AM 44.1 °F 38.1 °F 28.9 °F 55% 30.03 in 10.0 mi WNW 11.5 mph - N/A   Scattered Clouds